Location: Clarks Summit,Pa.
(41.5000°N, 75.6000°W)
Time: 22:19:27
(UTC-04:00)

ISS - Visible Passes

Search period start: 21 May 2018 00:00
Search period end: 31 May 2018 00:00
Orbit: 402 x 407 km, 51.6° (Epoch: 22 May)

Date Brightness Start Highest point End Pass type
(mag) Time Alt. Az. Time Alt. Az. Time Alt. Az.
21 May -0.5 00:58:21 10° NW 01:00:13 14° N 01:02:05 10° NNE visible
21 May -1.0 02:35:12 10° NNW 02:37:39 19° NNE 02:40:05 10° ENE visible
21 May -3.8 04:11:16 10° NW 04:14:32 80° NE 04:17:48 10° ESE visible
21 May -2.6 20:51:44 10° S 20:54:20 22° SE 20:56:56 10° E visible
21 May -2.7 22:27:30 10° WSW 22:30:38 44° NNW 22:33:48 10° NE visible
22 May -0.7 00:05:39 10° NW 00:07:45 16° N 00:09:51 10° NNE visible
22 May -0.7 01:43:06 10° NNW 01:45:13 16° N 01:47:18 10° NE visible
22 May -2.7 03:19:09 10° NW 03:22:18 44° NNE 03:25:28 10° ESE visible
22 May -2.6 04:56:02 10° W 04:58:37 22° SW 05:01:10 10° S visible
22 May -3.7 21:35:08 10° WSW 21:38:24 79° NW 21:41:41 10° NE visible
22 May -0.9 23:12:51 10° WNW 23:15:18 19° NNW 23:17:45 10° NNE visible
23 May -0.5 00:50:51 10° NNW 00:52:44 14° N 00:54:36 10° NE visible
23 May -1.8 02:27:06 10° NW 02:30:00 29° NNE 02:32:54 10° E visible
23 May -3.5 04:03:28 10° WNW 04:06:34 41° SW 04:09:39 10° SSE visible
23 May -1.4 22:20:06 10° W 22:22:53 25° NNW 22:25:41 10° NE visible
23 May -0.5 23:58:24 10° NW 00:00:13 14° N 00:02:03 10° NNE visible
24 May -1.2 01:35:02 10° NNW 01:37:37 21° NNE 01:37:40 21° NNE visible
24 May -2.2 21:27:27 10° W 21:30:32 37° NNW 21:33:37 10° NE visible
24 May -0.6 23:05:42 10° NW 23:07:42 15° N 23:09:42 10° NNE visible
25 May -0.9 00:42:56 10° NNW 00:45:09 17° NNE 00:46:00 15° NNE visible
25 May -0.8 22:12:53 10° WNW 22:15:12 18° NNW 22:17:31 10° NNE visible
25 May -0.7 23:50:43 10° NNW 23:52:39 15° N 23:54:35 10° NE visible
26 May -0.9 01:26:51 10° NW 01:27:35 15° NW 01:27:35 15° NW visible
26 May -1.2 21:20:04 10° WNW 21:22:44 23° NNW 21:25:25 10° NE visible
26 May -0.7 22:58:17 10° NNW 23:00:06 14° N 23:01:55 10° NE visible
27 May -1.2 00:34:46 10° NW 00:36:46 21° N 00:36:46 21° N visible
27 May -0.8 22:05:38 10° NW 22:07:33 14° N 22:09:28 10° NNE visible
27 May -1.2 23:42:38 10° NNW 23:45:00 18° NNE 23:46:02 16° NE visible
28 May -0.9 21:12:48 10° NW 21:15:00 16° NNW 21:17:12 10° NNE visible
28 May -0.9 22:50:26 10° NNW 22:52:27 15° N 22:54:29 10° NE visible
29 May -1.3 00:26:30 10° NW 00:27:58 22° NNW 00:27:58 22° NNW visible
29 May -0.9 21:58:03 10° NNW 21:59:53 14° N 22:01:43 10° NE visible
29 May -1.9 23:34:22 10° NW 23:37:11 26° NNE 23:37:19 26° NNE visible
30 May -0.9 21:05:25 10° NW 21:07:17 14° N 21:09:09 10° NNE visible
30 May -1.4 22:42:13 10° NNW 22:44:42 19° NNE 22:46:41 12° ENE visible
